sat.trackr.live / text

‹ back to catalog

AMAZONAS NEXUS

NORAD 55508 · 2023-017A

PAYLOAD ACTIVE UNKNOWN

§ Identity

Operator
Country
SPN
Launch date
2023-02-07
Launch site
AFETR
Launch vehicle
Mass (kg)
RCS (m²)

Purposes: comms

External: N2YO · Heavens-Above · Gunter

§ Orbital elements

Epoch: 2026-05-24T23:22:38.556768Z

Period
1,436.12 min
Inclination
0.0435°
Eccentricity
0.0005393
Mean motion
1.00270250 rev/d
Perigee alt
35,764.3 km
Apogee alt
35,809.8 km
Semi-major
42,165.2 km
B*
0.0000e+0
RAAN
42.5068°
Arg perigee
10.6450°
Mean anomaly
119.0817°
Rev number
681

§ Raw data

AMAZONAS NEXUS1 55508U 23017A   26144.97405737 -.00000285  00000+0  00000+0 0  99992 55508   0.0435  42.5068 0005393  10.6450 119.0817  1.00270250  6817

JSON: /api/v1/satellites/55508 · /tle

For live sub-satellite position, see the globe view (requires WebGL).

§ Visibility from observer

Set your observer location to see the next 7 days of passes ≥ 10°. The values pass through the URL so the page stays shareable.

No JS? Fill the form by hand. The geolocation button needs JavaScript.